Weather History for KAXN - October, 2012

Change the Weather History Date:

Wednesday, October 17, 2012

  Actual Average Record
Temperature  
Mean Temperature 48 °F -  
Max Temperature 54 °F 54 °F 78 °F (1961)
Min Temperature 42 °F 34 °F 14 °F (1952)
Degree Days  
Heating Degree Days 17    
Moisture  
Dew Point 45 °F    
Average Humidity 89    
Maximum Humidity 100    
Minimum Humidity 72    
Precipitation  
Precipitation 0.27 in - - ()
Sea Level Pressure  
Sea Level Pressure 29.21 in    
Wind  
Wind Speed 11 mph (WNW)    
Max Wind Speed 26 mph    
Max Gust Speed 38 mph    
Visibility 7 miles    
Events Rain    
Averages and records for this station are not official NWS values.
T = Trace of Precipitation, MM = Missing Value Source: NWS Daily Summary

Daily Weather History Graph

Daily Weather History Graph

Search for Another Location

Airport or City:

Trip Planner

Search our weather history database for the weather conditions in past years. The results will help you decide how hot, cold, wet, or windy it might be!

Date:

Astronomy

Oct. 17, 2012 Rise Set
Actual Time 7:41 AM CDT 6:31 PM CDT
Civil Twilight 7:11 AM CDT 7:01 PM CDT
Nautical Twilight 6:36 AM CDT 7:35 PM CDT
Astronomical Twilight 6:02 AM CDT 8:10 PM CDT
Moon 10:26 AM CDT (10/17) 7:57 PM CDT (10/17)
Length of Visible Light 11h 49m
Length of Day
10h 49m
Waxing Crescent, 7% of the Moon is Illuminated
Oct 17
Waxing Crescent
Oct 21
First Quarter
Oct 29
Full
Nov 6
Last Quarter
Nov 13
New

Hourly Weather History & Observations

Time (CDT) Temp. Windchill Dew Point Humidity Pressure Visibility Wind Dir Wind Speed Gust Speed Precip Events Conditions
12:53 AM 54.0 °F - 45.0 °F 72% 29.32 in 10.0 mi SE 6.9 mph - N/A   Clear
1:53 AM 53.1 °F - 45.0 °F 74% 29.30 in 10.0 mi SE 8.1 mph - N/A   Clear
2:53 AM 53.1 °F - 45.0 °F 74% 29.29 in 10.0 mi SSE 6.9 mph - N/A   Mostly Cloudy
3:53 AM 53.1 °F - 46.0 °F 77% 29.24 in 10.0 mi ESE 8.1 mph - N/A   Overcast
4:53 AM 53.1 °F - 46.0 °F 77% 29.21 in 10.0 mi East 6.9 mph - N/A   Overcast
5:53 AM 52.0 °F - 46.9 °F 83% 29.20 in 10.0 mi Calm Calm - N/A   Overcast
6:53 AM 51.1 °F - 48.0 °F 89% 29.16 in 7.0 mi North 10.4 mph - 0.03 in   Overcast
7:53 AM 51.1 °F - 48.9 °F 92% 29.16 in 4.0 mi NNE 8.1 mph - 0.07 in Rain Light Rain
8:20 AM 51.8 °F - 48.2 °F 88% 29.14 in 2.0 mi NNE 8.1 mph - 0.05 in Rain Light Rain
8:30 AM 51.8 °F - 48.2 °F 88% 29.13 in 3.0 mi NNE 5.8 mph - 0.05 in Rain Light Rain
8:53 AM 51.1 °F - 48.9 °F 92% 29.14 in 3.0 mi NNE 4.6 mph - 0.06 in   Overcast
9:02 AM 51.8 °F - 48.2 °F 88% 29.13 in 3.0 mi North 3.5 mph - N/A   Overcast
9:13 AM 51.8 °F - 48.2 °F 88% 29.13 in 2.5 mi WNW 4.6 mph - N/A   Overcast
9:39 AM 51.8 °F - 50.0 °F 94% 29.12 in 2.5 mi West 10.4 mph - 0.00 in Rain Light Rain
9:48 AM 51.8 °F - 50.0 °F 94% 29.12 in 3.0 mi WNW 8.1 mph - 0.00 in Rain Light Rain
9:53 AM 51.1 °F - 50.0 °F 96% 29.12 in 3.0 mi NW 6.9 mph - 0.00 in Rain Light Rain
10:11 AM 51.8 °F - 50.0 °F 94% 29.12 in 2.5 mi WNW 8.1 mph - 0.01 in Rain Light Rain
10:22 AM 51.8 °F - 50.0 °F 94% 29.11 in 2.0 mi WNW 10.4 mph - 0.04 in Rain Rain
10:33 AM 51.8 °F - 50.0 °F 94% 29.12 in 7.0 mi WNW 16.1 mph 23.0 mph 0.05 in Rain Light Rain
10:53 AM 51.1 °F - 48.9 °F 92% 29.13 in 4.0 mi WNW 26.5 mph 35.7 mph 0.06 in Rain Light Rain
11:14 AM 50.0 °F - 48.2 °F 94% 29.13 in 6.0 mi WNW 26.5 mph 38.0 mph 0.02 in Rain Light Rain
11:53 AM 48.9 °F - 46.9 °F 93% 29.15 in 10.0 mi WNW 24.2 mph 29.9 mph 0.03 in   Overcast
12:53 PM 48.9 °F - 46.0 °F 90% 29.19 in 10.0 mi West 18.4 mph 25.3 mph 0.00 in   Overcast
1:53 PM 48.9 °F - 45.0 °F 86% 29.19 in 10.0 mi West 20.7 mph 25.3 mph N/A   Overcast
2:02 PM 48.2 °F - 44.6 °F 87% 29.18 in 10.0 mi West 17.3 mph 29.9 mph N/A   Overcast
2:40 PM 51.8 °F - 46.4 °F 82% 29.18 in 10.0 mi West 18.4 mph 24.2 mph N/A   Overcast
2:53 PM 51.1 °F - 46.0 °F 83% 29.19 in 10.0 mi West 13.8 mph - N/A   Overcast
3:53 PM 50.0 °F - 46.9 °F 89% 29.21 in 7.0 mi West 17.3 mph 24.2 mph 0.00 in   Overcast
3:55 PM 48.2 °F - 46.4 °F 93% 29.20 in 7.0 mi West 17.3 mph 24.2 mph N/A   Overcast
4:53 PM 46.0 °F 39.0 °F 44.1 °F 93% 29.24 in 6.0 mi West 17.3 mph 23.0 mph N/A   Overcast
5:00 PM 46.4 °F 38.7 °F 42.8 °F 87% 29.23 in 6.0 mi West 20.7 mph 27.6 mph N/A   Overcast
5:21 PM 44.6 °F 36.4 °F 42.8 °F 93% 29.23 in 2.5 mi West 20.7 mph 26.5 mph 0.00 in Rain Light Rain
5:49 PM 44.6 °F 37.2 °F 42.8 °F 93% 29.24 in 4.0 mi West 17.3 mph 26.5 mph 0.00 in   Overcast
5:53 PM 44.1 °F 36.2 °F 42.1 °F 93% 29.26 in 6.0 mi West 18.4 mph 25.3 mph 0.00 in   Overcast
6:36 PM 44.6 °F 36.9 °F 41.0 °F 87% 29.25 in 10.0 mi West 18.4 mph 26.5 mph N/A   Overcast
6:53 PM 44.1 °F 36.5 °F 41.0 °F 89% 29.28 in 9.0 mi West 17.3 mph 25.3 mph N/A   Overcast
7:16 PM 42.8 °F 34.8 °F 42.8 °F 100% 29.27 in 5.0 mi West 17.3 mph 23.0 mph 0.00 in Rain Light Rain
7:46 PM 44.6 °F 38.4 °F 41.0 °F 87% 29.28 in 10.0 mi West 12.7 mph 23.0 mph 0.01 in   Overcast
7:53 PM 43.0 °F 36.0 °F 41.0 °F 93% 29.30 in 7.0 mi West 13.8 mph 19.6 mph 0.01 in   Overcast
8:10 PM 42.8 °F 36.2 °F 41.0 °F 93% 29.28 in 5.0 mi West 12.7 mph - 0.00 in   Overcast
8:53 PM 43.0 °F 35.7 °F 41.0 °F 93% 29.30 in 7.0 mi West 15.0 mph 20.7 mph 0.00 in   Overcast
9:53 PM 43.0 °F 36.0 °F 41.0 °F 93% 29.30 in 9.0 mi WNW 13.8 mph - 0.01 in   Overcast
10:53 PM 42.1 °F 35.2 °F 39.9 °F 92% 29.28 in 10.0 mi West 12.7 mph 21.9 mph N/A   Overcast
11:08 PM 42.8 °F 35.4 °F 39.2 °F 87% 29.25 in 10.0 mi West 15.0 mph - N/A   Overcast
11:53 PM 42.1 °F 34.9 °F 39.0 °F 89% 29.26 in 10.0 mi West 13.8 mph 21.9 mph N/A   Overcast